Home   Weather   Sankt Augustin   Past weeks

Flag for Germany Past Weather in Sankt Augustin, North Rhine-Westphalia, Germany — Yesterday and Last 2 Weeks

Now
93 °F

Passing clouds.


Feels Like: 90 °F
Forecast: 62 / 75 °F
Wind: 16 mph from Southwest

Location: Koeln / Bonn

Current Time: May 29, 2017 at 5:05:07 pm

Latest Report: May 29, 2017 at 4:20 pm


Visibility: N/A

Pressure: 29.83 "Hg

Humidity: 24%

Dew Point: 52 °F

Location of Sankt AugustinLocation

Past Weather in Sankt Augustin — Graph

°F

Sankt Augustin Temperature Yesterday

Maximum temperature yesterday: 86 °F (at 4:20 pm)
Minimum temperature yesterday: 61 °F (at 5:20 am)
Average temperature yesterday: 73 °F

High & Low Weather Summary for the Past Weeks

 TemperatureHumidityPressure
High93 °F (May 29, 3:50 pm)100% (May 15, 2:20 am)30.42 "Hg (May 15, 2:20 am)
Low41 °F (May 21, 4:20 am)26% (May 29, 3:50 pm)29.77 "Hg (May 19, 12:20 am)
Average65 °F66%30.12 "Hg
* Reported May 14 3:20 pm — May 29 3:50 pm, Sankt Augustin. Weather by CustomWeather, © 2017

Note: Actual official high and low records may vary slightly from our data, if they occured in-between our weather recording intervals... More about our weather records

Advertising

Sankt Augustin Weather History for the Previous 24 Hours

Scroll right to see more
 ConditionsComfort  
Time TempWeatherWind HumidityBarometerVisibility
3:50 pm
Mon, May 29
93 °FPassing clouds.13 mph26%29.83 "HgN/A
3:20 pm91 °FPassing clouds.15 mph28%29.86 "HgN/A
2:50 pm91 °FSunny.13 mph30%29.86 "Hg10 mi
2:20 pm91 °FPassing clouds.14 mph36%29.86 "HgN/A
1:50 pm90 °FPassing clouds.10 mph36%29.86 "HgN/A
1:20 pm90 °FPassing clouds.9 mph36%29.89 "HgN/A
12:50 pm90 °FPassing clouds.12 mph36%29.89 "HgN/A
12:20 pm86 °FPassing clouds.9 mph52%29.89 "HgN/A
11:50 am86 °FPassing clouds.10 mph52%29.89 "HgN/A
11:20 am84 °FPassing clouds.7 mph48%29.92 "HgN/A
10:50 am82 °FPassing clouds.6 mph51%29.92 "HgN/A
10:20 am81 °FPassing clouds.5 mph58%29.92 "HgN/A
9:50 am79 °FPassing clouds.6 mph61%29.92 "HgN/A
9:20 am77 °FPassing clouds.6 mph65%29.92 "HgN/A
8:50 am73 °FPassing clouds.5 mph69%29.92 "HgN/A
8:20 am72 °FPassing clouds.7 mph73%29.92 "HgN/A
7:50 am70 °FPassing clouds.5 mph78%29.92 "HgN/A
7:20 am68 °FPassing clouds.5 mph83%29.92 "HgN/A
6:50 am66 °FSunny.6 mph88%29.92 "Hg10 mi
6:20 am66 °FSunny.6 mph88%29.95 "Hg10 mi
5:50 am66 °FSunny.2 mph88%29.95 "Hg10 mi
5:20 am66 °FClear.2 mph88%29.95 "Hg10 mi
4:50 am63 °FClear.3 mph94%29.95 "Hg10 mi
4:20 am64 °FClear.3 mph94%29.95 "Hg10 mi
3:50 am63 °FFog.2 mph100%29.98 "HgN/A
3:20 am63 °FFog.2 mph100%29.95 "HgN/A
2:50 am64 °FFog.2 mph94%29.98 "HgN/A
2:20 am66 °FPassing clouds.3 mph88%29.98 "HgN/A
1:50 am64 °FPassing clouds.5 mph94%29.98 "HgN/A
1:20 am64 °FFog.1 mph100%29.98 "HgN/A
12:50 am64 °FClear.1 mph100%30.01 "Hg10 mi
11:50 pm
Sun, May 28
68 °FClear.2 mph88%30.01 "Hg10 mi
11:20 pm70 °FClear.2 mph83%30.01 "Hg10 mi
10:50 pm70 °FClear.6 mph83%30.04 "Hg10 mi
10:20 pm72 °FClear.6 mph73%30.04 "Hg10 mi
9:50 pm70 °FClear.1 mph83%30.04 "Hg10 mi
9:20 pm73 °FSunny.1 mph78%30.01 "Hg10 mi
8:50 pm75 °FSunny.2 mph69%30.01 "Hg10 mi
8:20 pm79 °FSunny.1 mph58%30.01 "Hg10 mi
7:50 pm79 °FSunny.12 mph61%30.01 "Hg10 mi
7:20 pm82 °FSunny.3 mph62%30.01 "Hg10 mi
6:50 pm81 °FBroken clouds.6 mph66%30.01 "HgN/A
6:20 pm82 °FPartly sunny.7 mph62%30.01 "HgN/A
5:50 pm82 °FBroken clouds.3 mph66%30.01 "HgN/A
5:20 pm77 °FSprinkles. Broken clouds.7 mph79%30.04 "HgN/A
Weather by CustomWeather, © 2017

See weather overviewHow to use our weather pages